Weather History for KAEG - October, 2012

Change the Weather History Date:

Sunday, October 14, 2012

  Actual Average Record
Temperature  
Mean Temperature 52 °F -  
Max Temperature 68 °F - - ()
Min Temperature 35 °F - - ()
Degree Days  
Heating Degree Days 14    
Growing Degree Days 2 (Base 50)    
Moisture  
Dew Point 29 °F    
Average Humidity 51    
Maximum Humidity 81    
Minimum Humidity 21    
Precipitation  
Precipitation 0.00 in - - ()
Sea Level Pressure  
Sea Level Pressure 30.31 in    
Wind  
Wind Speed 2 mph (NW)    
Max Wind Speed 8 mph    
Max Gust Speed -    
Visibility 10 miles    
Events      
T = Trace of Precipitation, MM = Missing Value Source: NWS Daily Summary

Daily Weather History Graph

Daily Weather History Graph

Search for Another Location

Airport or City:

Trip Planner

Search our weather history database for the weather conditions in past years. The results will help you decide how hot, cold, wet, or windy it might be!

Date:

Astronomy

Oct. 14, 2012 Rise Set
Actual Time 7:12 AM MDT 6:32 PM MDT
Civil Twilight 6:47 AM MDT 6:58 PM MDT
Nautical Twilight 6:17 AM MDT 7:27 PM MDT
Astronomical Twilight 5:48 AM MDT 7:56 PM MDT
Moon 6:15 AM MDT (10/14) 5:55 PM MDT (10/14)
Length of Visible Light 12h 10m
Length of Day
11h 19m
Waning Crescent, 1% of the Moon is Illuminated
Oct 14
Waning Crescent
Oct 15
New
Oct 21
First Quarter
Oct 29
Full
Nov 6
Last Quarter

Hourly Weather History & Observations

Time (MDT) Temp. Windchill Dew Point Humidity Pressure Visibility Wind Dir Wind Speed Gust Speed Precip Events Conditions
12:15 AM 46.4 °F - 32.0 °F 57% 30.26 in 10.0 mi Calm Calm - N/A   Clear
12:35 AM 46.4 °F 42.9 °F 32.0 °F 57% 30.26 in 10.0 mi North 6.9 mph - N/A   Clear
12:55 AM 44.6 °F 40.7 °F 32.0 °F 61% 30.26 in 10.0 mi North 6.9 mph - N/A   Clear
1:15 AM 44.6 °F 40.7 °F 32.0 °F 61% 30.27 in 10.0 mi North 6.9 mph - N/A   Clear
1:35 AM 44.6 °F 40.2 °F 32.0 °F 61% 30.27 in 10.0 mi NNE 8.1 mph - N/A   Clear
1:55 AM 42.8 °F - 32.0 °F 66% 30.28 in 10.0 mi Calm Calm - N/A   Clear
2:15 AM 44.6 °F - 32.0 °F 61% 30.29 in 10.0 mi Calm Calm - N/A   Clear
2:35 AM 44.6 °F - 32.0 °F 61% 30.29 in 10.0 mi Calm Calm - N/A   Clear
2:55 AM 42.8 °F - 32.0 °F 66% 30.29 in 10.0 mi Calm Calm - N/A   Clear
3:15 AM 41.0 °F - 32.0 °F 70% 30.30 in 10.0 mi Calm Calm - N/A   Clear
3:35 AM 39.2 °F - 30.2 °F 70% 30.30 in 10.0 mi Calm Calm - N/A   Clear
3:55 AM 35.6 °F - 28.4 °F 75% 30.31 in 10.0 mi Calm Calm - N/A   Clear
4:15 AM 39.2 °F - 30.2 °F 70% 30.32 in 10.0 mi Calm Calm - N/A   Clear
4:35 AM 37.4 °F 31.4 °F 30.2 °F 75% 30.32 in 10.0 mi West 8.1 mph - N/A   Clear
4:55 AM 37.4 °F - 30.2 °F 75% 30.32 in 10.0 mi Calm Calm - N/A   Clear
5:15 AM 39.2 °F 34.2 °F 32.0 °F 75% 30.33 in 10.0 mi NW 6.9 mph - N/A   Clear
5:35 AM 37.4 °F - 30.2 °F 75% 30.34 in 10.0 mi Calm Calm - N/A   Clear
6:50 AM 37.4 °F - 32.0 °F 81% 30.35 in 10.0 mi Calm Calm - N/A   Clear
7:50 AM 37.4 °F - 30.2 °F 75% 30.36 in 10.0 mi Calm Calm - N/A   Clear
8:50 AM 46.4 °F - 32.0 °F 57% 30.38 in 10.0 mi Calm Calm - N/A   Clear
9:50 AM 53.6 °F - 33.8 °F 47% 30.38 in 10.0 mi Calm Calm - N/A   Clear
10:50 AM 55.4 °F - 33.8 °F 44% 30.40 in 10.0 mi Calm Calm - N/A   Clear
11:50 AM 59.0 °F - 33.8 °F 39% 30.39 in 10.0 mi Calm Calm - N/A   Partly Cloudy
12:50 PM 64.4 °F - 32.0 °F 30% 30.37 in 10.0 mi Calm Calm - N/A   Partly Cloudy
2:50 PM 66.2 °F - 28.4 °F 24% 30.30 in 10.0 mi Calm Calm - N/A   Clear
3:50 PM 68.0 °F - 28.4 °F 23% 30.28 in 10.0 mi Calm Calm - N/A   Clear
4:50 PM 66.2 °F - 26.6 °F 23% 30.27 in 10.0 mi Calm Calm - N/A   Clear
5:45 PM 66.2 °F - 24.8 °F 21% 30.27 in 10.0 mi Calm Calm - N/A   Clear
6:50 PM 60.8 °F - 24.8 °F 25% 30.27 in 10.0 mi Calm Calm - N/A   Clear
7:50 PM 53.6 °F - 23.0 °F 30% 30.28 in 10.0 mi Calm Calm - N/A   Clear
8:50 PM 53.6 °F - 23.0 °F 30% 30.29 in 10.0 mi Calm Calm - N/A   Clear
9:50 PM 48.2 °F - 23.0 °F 37% 30.29 in 10.0 mi Calm Calm - N/A   Clear
10:15 PM 46.4 °F 42.9 °F 23.0 °F 40% 30.30 in 10.0 mi West 6.9 mph - N/A   Clear
10:35 PM 46.4 °F - 23.0 °F 40% 30.30 in 10.0 mi Calm Calm - N/A   Clear
10:55 PM 48.2 °F - 23.0 °F 37% 30.30 in 10.0 mi WSW 5.8 mph - N/A   Clear
11:15 PM 46.4 °F - 21.2 °F 37% 30.30 in 10.0 mi Calm Calm - N/A   Clear
11:35 PM 50.0 °F - 23.0 °F 35% 30.30 in 10.0 mi Calm Calm - N/A   Clear
11:55 PM 48.2 °F - 23.0 °F 37% 30.30 in 10.0 mi West 8.1 mph - N/A   Clear